Regional Weather Roundup
Issued by NWS

Home | Current Version | Previous Version | Graphics & Text | Print | Product List | Glossary On
Versions: 1 2 3 4 5 6 7 8 9 10 11 12 13 14 15 16 17 18 19 20 21 22 23 24 25 26 27 28 29 30 31 32 33 34 35 36 37 38 39 40 41 42 43 44 45 46 47 48 49 50
000
ASUS43 KFSD 202202
RWRSD

WEATHER ROUNDUP FOR SOUTH DAKOTA
NATIONAL WEATHER SERVICE SIOUX FALLS SD
500 PM CDT WED AUG 20 2014

NOTE: "FAIR" INDICATES FEW OR NO CLOUDS BELOW 12,000 FEET WITH NO
SIGNIFICANT WEATHER AND/OR OBSTRUCTIONS TO VISIBILITY.


SDZ001>005-009-010-012>017-202300-
NORTHWEST AND NORTH CENTRAL SOUTH DAKOTA

CITY           SKY/WX    TMP DP  RH WIND       PRES   REMARKS
BUFFALO          N/A     80  56  43 NW24G33   29.68R
FAITH            N/A     88  62  41 SE15G22   29.66F
MOBRIDGE       CLOUDY    81  70  69 SE14      29.66F
$$

SDZ012>016-024>037-041>051-057-063-072>074-202300-
SOUTHWEST AND SOUTH CENTRAL SOUTH DAKOTA

CITY           SKY/WX    TMP DP  RH WIND       PRES   REMARKS
RAPID CTY ARPT CLOUDY    80  61  52 N22       29.72S
PIERRE         PTSUNNY   86  72  62 E12       29.65F
CUSTER         MOSUNNY   82  42  24 W9G21     29.89S
PHILIP         MOSUNNY   93  54  26 S9        29.64F
PINE RIDGE     PTSUNNY   88  57  34 W6        29.74S
WINNER         FAIR      91  66  43 S14       29.69F
$$

SDZ004>011-016>023-039-040-202300-
NORTHEAST SOUTH DAKOTA

CITY           SKY/WX    TMP DP  RH WIND       PRES   REMARKS
ABERDEEN       CLOUDY    81  67  62 SE12      29.72F
WATERTOWN      CLOUDY    79  67  66 SE12      29.78S
SISSETON         N/A     83  68  60 S13G21    29.76S
$$

SDZ017-020-022-023-036>040-048>070-202300-
SOUTHEAST SOUTH DAKOTA

CITY           SKY/WX    TMP DP  RH WIND       PRES   REMARKS
SIOUX FALLS    LGT RAIN  75  69  81 VRB6G21   29.76F
HURON          LGT RAIN  84  70  62 SE9       29.70S
CHAMBERLAIN    MOSUNNY   83  72  67 SE10      29.70S
MITCHELL       CLOUDY    79  69  71 SE13G20   29.72S
YANKTON        CLOUDY    77  72  83 SE12      29.74S
$$

ABBREVIATIONS USED IN REMARKS
   TC - TEMPERATURE IN CELSIUS
  WCI - WIND CHILL INDEX
   HX - HEAT INDEX
  VSB - VISIBILITY




USA.gov is the U.S. government's official web portal to all federal, state and local government web resources and services.